Temperature
26 25 25 25 24 24 24 24 23 23 23 23 22 21 19 18 18 17 16 15 15 14 13 12 12 11 11 10 10 9 9 9 9 9 9 9 9 9 9 9 9 9 9 9
25 25 25 24 24 24 24 23 23 23 23 23 21 20 19 18 17 16 15 15 14 13 12 11 11 10 10 9 9 8 8 8 8 8 8 8 8 8 8 8 8 8 9 9
26 25 24 24 24 24 23 23 23 22 22 22 21 19 18 17 16 15 14 13 13 12 11 10 10 9 9 8 8 8 8 7 7 7 7 7 7 7 7 7 7 8 8 8
25 24 23 24 24 24 23 23 23 22 22 21 20 18 17 16 15 14 13 12 12 11 10 10 9 9 8 8 8 7 7 7 7 7 6 6 6 6 6 6 7 7 7 7
25 25 25 24 23 23 22 22 23 21 21 20 19 18 19 16 14 13 12 11 11 10 10 9 9 8 7 7 7 7 7 7 6 6 6 6 6 6 6 6 6 6 6 6
25 23 23 24 23 22 22 22 22 20 20 19 18 18 19 15 13 12 11 11 10 9 9 8 8 7 7 7 6 6 6 6 6 6 5 5 5 5 5 5 6 6 6 6
24 24 25 24 22 22 22 22 20 19 19 18 17 17 15 14 13 12 11 10 9 9 8 8 7 6 6 6 6 6 6 5 5 5 5 5 5 5 5 5 5 5 6 6
24 23 24 23 23 22 22 20 19 18 18 17 16 15 14 13 12 11 10 10 9 8 8 7 7 6 6 6 6 5 5 5 5 5 5 5 5 5 5 5 5 5 5 5
24 24 23 23 22 21 19 19 18 18 17 16 15 14 13 12 11 11 10 9 8 8 7 7 6 6 6 6 5 5 5 5 5 5 5 5 5 5 5 5 5 5 5 5
23 24 23 22 21 20 19 18 17 16 16 15 14 13 12 11 11 10 9 9 8 7 7 6 6 6 6 5 5 5 5 5 5 5 5 5 5 5 5 5 5 5 5 5
23 24 23 22 21 20 18 17 17 16 15 14 13 13 12 11 10 9 9 8 7 7 6 6 6 6 5 5 5 5 5 5 5 5 5 5 5 5 5 5 5 5 5 5
24 24 23 22 20 19 18 17 16 15 15 14 13 12 11 10 10 9 8 8 7 7 6 6 6 6 5 5 5 5 5 5 5 5 5 5 5 5 5 5 5 5 5 5
23 22 22 21 19 18 18 17 16 15 14 13 12 11 11 10 9 9 8 7 7 6 6 6 6 6 5 5 5 5 5 5 5 5 5 5 5 5 5 5 5 5 5 5
20 20 20 20 19 18 17 16 15 14 14 13 12 11 10 10 9 9 8 7 6 6 6 6 6 5 5 5 5 5 5 6 5 6 6 6 6 6 6 5 5 5 5 5
20 19 20 19 18 17 16 15 15 15 14 13 12 11 10 9 9 8 7 7 6 6 6 6 6 5 6 6 6 6 6 6 6 6 6 6 6 6 6 6 6 5 5 5
20 19 19 18 18 17 16 15 15 15 14 12 12 10 10 9 8 8 7 7 6 6 6 6 6 5 6 6 6 6 6 6 6 6 6 6 6 6 6 6 6 6 5 5
20 19 19 18 18 17 16 16 15 14 13 12 11 10 9 9 8 8 7 7 6 6 6 6 6 6 6 6 6 6 6 6 6 6 6 6 6 6 6 6 6 6 6 5
20 20 19 19 18 17 16 15 14 13 12 11 10 10 9 9 8 7 7 7 6 6 6 6 6 6 6 6 6 6 6 6 6 6 6 6 6 6 6 6 6 6 6 6
19 19 18 18 17 16 15 15 14 13 12 11 10 9 9 8 8 7 7 6 6 6 6 6 6 6 6 6 6 6 6 6 7 7 7 6 7 7 7 7 6 6 6 6
18 18 17 17 16 15 15 14 13 12 11 10 10 9 9 8 8 7 7 6 6 5 5 6 6 6 6 6 6 6 6 7 7 7 7 7 7 7 7 7 7 7 6 6
17 17 17 16 16 15 14 13 12 12 11 10 9 9 9 8 8 7 7 6 6 6 6 6 6 6 6 6 6 6 6 7 7 7 7 7 7 7 7 7 7 7 7 6
16 16 16 16 15 15 14 13 12 11 11 10 9 9 8 8 8 7 7 6 6 6 6 6 6 6 6 7 7 6 6 7 7 7 7 7 7 7 7 7 7 7 7 7
15 15 15 15 15 14 13 13 12 11 11 10 9 9 9 8 8 7 7 6 6 6 6 6 6 6 7 7 7 7 7 7 7 7 7 7 8 8 8 8 8 8 8 8
14 14 14 14 14 13 13 13 12 11 11 10 10 9 9 8 8 7 6 6 6 6 6 6 6 6 7 7 7 7 7 7 7 7 8 8 8 8 8 8 8 8 8 8
13 13 14 14 13 13 13 12 12 11 11 10 10 9 9 8 7 7 7 6 6 6 6 6 6 6 6 7 7 7 7 7 7 7 8 8 8 8 8 9 9 9 9 9
13 13 13 13 13 13 13 13 12 12 11 10 10 9 8 8 7 7 6 6 6 6 6 6 6 6 6 7 7 7 7 7 7 7 8 8 8 8 9 9 9 9 9 9
13 13 13 13 13 13 13 13 12 12 11 10 10 9 8 8 7 7 6 6 6 6 6 6 6 6 6 6 7 7 7 7 8 8 8 8 8 8 8 9 9 9 9 9
Wind_Speed
2 2 2 1 1 2 4 6 8 11 12 11 9 10 11 12 14 16 16 16 17 17 17 18 19 19 19 19 19 19 20 20 20 20 20 19 19 18 18 17 18 17 18 18
2 2 3 4 3 3 4 6 9 11 11 7 9 11 12 14 16 17 17 18 18 19 19 19 19 19 20 20 20 20 20 21 20 20 20 19 19 19 18 17 17 16 17 18
5 2 6 6 4 4 6 8 10 11 12 12 13 14 15 16 15 16 17 19 19 20 19 19 19 19 20 20 19 19 20 20 20 19 19 19 19 19 18 17 16 16 16 17
6 4 6 3 3 2 7 9 9 9 11 12 13 14 15 13 12 15 18 19 19 19 19 19 19 19 19 20 20 19 20 20 19 19 18 18 18 18 17 15 15 15 15 16
6 8 7 3 3 2 7 11 5 7 11 13 13 15 11 7 11 15 17 18 18 18 19 19 19 19 19 20 19 19 19 19 19 18 18 18 18 17 16 14 14 14 13 14
7 9 8 1 4 0 5 5 2 6 11 13 14 14 12 14 16 17 17 17 17 18 19 19 19 19 19 20 19 19 19 19 19 18 18 18 17 17 15 14 14 13 13 13
9 10 5 6 5 3 6 7 5 8 10 11 12 12 15 17 16 16 17 18 18 18 18 18 18 18 19 19 19 19 19 18 18 17 17 17 16 14 13 12 12 12 13 12
6 7 2 8 4 3 5 4 5 7 8 10 12 14 15 16 16 17 17 18 18 17 17 17 17 17 18 19 19 18 18 18 17 17 15 14 14 13 13 12 11 11 11 11
4 3 4 4 3 2 3 5 6 7 8 10 12 14 15 15 16 16 17 17 17 17 18 17 17 17 18 18 18 17 17 17 16 16 14 13 12 12 11 10 9 8 8 8
6 6 5 5 5 5 5 5 5 6 7 9 12 14 15 15 15 16 16 17 16 17 18 18 18 17 17 17 17 17 17 16 15 14 13 12 10 9 8 8 7 7 7 7
9 8 5 7 6 5 5 5 5 5 7 9 11 13 14 14 15 15 16 16 16 16 17 18 18 17 17 16 16 16 16 15 14 12 12 10 9 7 7 6 5 6 5 5
8 5 6 3 3 4 5 5 5 5 7 8 9 12 13 14 14 15 16 16 16 16 17 17 17 17 16 15 16 16 14 13 11 10 10 9 8 7 4 5 5 5 6 5
6 4 4 3 4 4 4 4 4 4 6 8 9 10 12 13 14 15 16 16 16 16 17 17 17 17 16 16 16 15 14 13 10 10 9 9 8 7 5 1 2 2 2 2
6 5 6 6 5 6 5 4 3 4 5 7 8 10 12 13 15 15 16 16 16 16 16 16 16 16 16 16 16 15 14 12 10 8 8 8 7 7 5 3 1 1 2 2
10 10 7 5 6 6 6 5 5 5 5 7 8 10 12 13 15 15 15 15 15 15 15 16 16 16 16 16 16 15 12 10 10 8 7 7 7 6 4 4 2 1 3 4
11 11 9 9 8 8 7 6 6 5 5 7 8 10 12 13 14 14 14 14 15 15 15 15 15 16 16 15 15 12 10 10 11 9 7 7 6 5 4 3 2 2 2 3
11 13 13 12 11 9 8 6 5 4 5 6 8 10 11 13 13 14 14 14 14 14 13 13 15 16 16 15 14 11 10 9 10 8 6 6 6 5 4 3 3 3 3 4
12 11 10 10 9 9 8 6 4 4 4 5 7 9 11 12 13 14 15 15 14 14 13 15 16 17 15 14 13 10 9 9 8 7 6 6 6 4 4 4 4 4 4 4
10 9 9 8 8 7 6 5 4 3 3 4 7 8 10 11 12 13 14 14 13 14 15 17 18 16 15 15 15 9 9 9 8 7 6 4 4 4 4 4 4 4 3 2
9 9 10 9 8 7 6 5 4 4 3 4 6 8 9 11 11 12 13 12 9 10 14 16 16 14 14 14 15 9 9 9 8 7 6 5 4 4 4 4 4 4 3 3
9 10 10 10 9 8 7 6 5 4 3 4 5 7 9 10 11 11 11 11 11 13 15 14 11 12 12 14 13 9 8 8 7 6 6 5 5 5 5 5 5 4 4 3
8 9 10 10 9 9 8 7 6 5 4 4 5 6 8 9 10 10 9 8 10 12 12 10 10 14 17 16 8 8 8 8 7 6 5 5 5 5 5 5 4 4 3 3
8 9 10 10 10 9 9 8 7 6 5 4 4 5 7 8 8 9 9 9 10 13 11 9 13 18 20 10 8 8 8 8 7 6 6 5 4 4 4 5 4 4 3 3
8 8 9 9 8 9 10 9 8 7 6 5 4 3 5 6 6 6 7 7 8 11 9 9 12 16 14 8 8 8 8 8 7 7 6 5 4 5 5 4 5 4 4 4
8 9 10 10 10 10 10 9 9 8 7 5 4 3 3 4 5 6 7 8 9 9 9 8 10 12 10 8 8 8 8 8 8 7 6 5 4 4 5 4 5 5 5 4
9 9 9 10 9 8 8 8 8 7 7 6 4 3 2 2 4 5 5 7 9 8 8 7 8 8 8 8 8 8 8 8 8 7 7 6 5 5 4 5 5 5 5 6
11 10 9 9 10 10 9 9 9 8 8 6 5 3 2 1 2 4 5 6 6 7 7 7 7 7 7 8 8 8 7 7 8 8 7 6 5 5 4 4 4 5 5 5
Wind_Direction
33 16 313 317 314 335 343 339 324 326 320 330 340 327 320 315 315 316 318 319 320 318 317 315 313 312 310 309 307 306 302 298 295 293 291 287 284 280 275 270 265 260 253 248
228 217 270 261 249 273 309 319 318 315 321 353 330 315 314 316 318 318 319 320 321 318 317 315 314 312 311 308 307 305 301 298 296 295 292 289 286 281 277 271 266 263 257 251
285 235 269 254 226 263 302 317 316 314 327 331 319 320 319 317 315 318 320 320 319 318 316 315 313 312 310 308 307 304 301 299 298 295 293 292 289 285 280 275 268 262 256 252
290 274 280 58 95 289 299 305 309 307 318 324 319 318 310 306 316 320 319 319 318 317 316 315 314 312 311 310 308 306 303 301 300 297 294 292 288 285 282 278 272 268 262 255
283 286 286 161 178 278 306 305 311 313 319 321 322 311 309 356 335 322 319 318 316 316 316 315 314 316 314 311 309 307 305 304 302 300 297 293 289 285 282 278 272 265 259 255
272 289 295 86 125 116 290 290 63 318 317 321 320 315 329 343 330 323 321 319 318 318 316 316 318 318 314 311 310 308 308 307 305 302 298 294 290 286 282 277 272 268 260 251
270 276 282 110 131 205 295 348 350 319 317 316 318 311 317 322 323 322 320 319 319 319 318 319 319 318 313 311 310 311 310 308 305 303 300 294 289 285 282 277 273 267 262 253
267 272 265 132 168 274 328 339 316 316 316 317 313 312 316 320 321 321 321 322 323 321 320 320 320 318 313 312 314 314 312 308 306 305 302 298 295 290 285 279 272 264 257 253
268 310 97 170 228 287 304 296 309 312 317 316 314 317 320 321 321 322 323 323 323 322 321 321 322 320 315 316 317 316 313 310 309 307 302 300 295 292 289 282 270 262 254 248
256 250 218 217 234 244 254 276 299 306 311 314 315 318 321 321 321 322 323 323 324 324 321 321 322 321 318 317 319 317 313 312 310 309 306 304 298 292 289 287 278 268 260 253
252 256 240 226 230 239 238 252 273 293 307 313 315 317 321 320 322 324 322 324 325 322 320 320 321 321 320 322 322 319 315 312 312 310 308 308 306 297 294 289 285 278 274 266
265 243 236 219 177 205 222 241 266 290 302 311 316 318 320 320 323 322 322 324 323 322 321 320 321 322 325 327 324 320 318 318 317 314 315 317 316 313 282 274 289 269 263 279
257 227 221 167 175 193 215 232 253 277 298 309 316 319 320 320 321 323 325 327 326 324 321 320 323 324 329 330 326 321 319 319 318 319 321 324 325 324 325 281 223 255 254 251
215 203 206 209 206 197 210 221 247 274 293 307 316 320 321 321 323 326 329 328 327 324 320 323 326 327 332 330 326 323 322 321 320 320 324 326 329 330 333 340 355 132 131 121
213 213 221 199 191 190 202 218 247 277 299 310 318 322 324 324 325 326 329 328 327 324 326 329 328 330 333 329 327 325 326 329 328 327 327 330 334 338 344 353 6 116 131 119
214 211 210 203 204 203 209 226 254 284 302 310 318 324 325 323 323 326 331 333 330 327 327 329 330 332 330 328 327 325 326 325 324 327 331 336 342 347 358 10 26 75 104 122
208 208 210 212 211 211 216 229 252 280 297 310 320 323 323 325 327 332 334 335 330 325 330 335 335 333 329 328 328 327 328 330 323 330 342 346 350 357 7 19 43 74 84 85
218 219 209 207 205 204 208 216 231 254 284 307 315 321 325 328 330 331 332 332 329 331 341 342 339 333 330 333 333 328 329 334 342 348 352 359 357 9 24 34 48 73 95 121
211 205 191 186 184 186 193 202 217 241 272 299 312 320 323 326 330 329 330 329 332 337 340 338 332 331 336 338 336 330 333 339 349 356 2 358 356 24 40 49 60 77 89 105
201 191 183 177 175 179 185 191 206 228 255 290 308 317 324 330 331 330 329 327 342 345 333 331 331 336 338 338 334 332 336 343 354 358 4 11 20 34 47 56 62 70 79 83
208 195 187 184 182 184 189 193 208 227 246 278 303 317 323 326 329 331 329 331 345 349 336 326 335 342 339 331 321 336 344 349 356 2 9 18 24 33 44 52 59 66 71 73
227 211 201 193 190 193 194 198 207 221 234 262 294 314 321 324 329 330 329 336 338 347 337 335 344 343 336 327 339 347 351 357 359 6 16 30 39 44 50 54 60 72 76 71
252 231 219 207 201 202 201 203 207 217 231 252 283 306 318 324 325 326 329 344 339 339 332 341 343 339 333 336 349 352 357 2 2 6 15 28 41 50 58 59 63 75 76 72
271 243 232 220 209 212 214 211 207 213 225 241 257 283 301 311 319 331 334 334 339 334 332 344 342 339 333 347 354 357 1 2 359 0 8 25 40 47 53 53 59 65 67 63
282 255 235 221 213 217 220 215 210 210 217 228 241 247 278 309 319 327 330 334 343 337 337 346 348 344 348 354 356 357 2 3 355 353 5 15 29 44 46 44 49 51 54 57
283 261 245 231 228 228 218 212 215 216 219 222 224 226 265 302 314 322 330 337 342 341 343 350 353 353 356 355 357 358 358 355 354 1 9 11 18 29 37 37 42 44 48 51
278 262 245 235 227 225 224 216 218 217 213 213 213 203 215 275 315 334 341 344 347 351 354 356 359 0 359 357 356 359 360 1 1 0 3 6 8 15 25 33 42 44 47 55
Height
1498 1498 1498 1501 1502 1502 1503 1504 1505 1504 1503 1499 1502 1505 1506 1505 1504 1502 1500 1497 1495 1492 1489 1485 1481 1477 1472 1468 1464 1459 1455 1451 1447 1444 1441 1438 1436 1434 1433 1432 1431 1431 1432 1432
1500 1500 1500 1502 1502 1502 1503 1503 1503 1502 1500 1500 1503 1504 1504 1503 1501 1499 1497 1494 1491 1488 1484 1480 1476 1471 1466 1462 1457 1452 1448 1443 1439 1435 1432 1429 1426 1424 1423 1421 1421 1421 1421 1422
1497 1498 1501 1502 1500 1502 1502 1500 1502 1502 1501 1500 1501 1502 1502 1501 1499 1497 1495 1491 1488 1484 1480 1475 1470 1465 1460 1455 1450 1445 1440 1436 1431 1427 1423 1420 1417 1415 1413 1411 1411 1410 1411 1412
1495 1502 1512 1500 1497 1500 1501 1500 1499 1499 1500 1501 1502 1501 1500 1498 1497 1495 1492 1488 1484 1480 1475 1470 1465 1460 1454 1449 1444 1439 1433 1429 1424 1419 1415 1411 1408 1406 1403 1402 1401 1400 1401 1402
1496 1498 1496 1497 1498 1499 1501 1499 1498 1500 1501 1501 1500 1498 1493 1494 1495 1493 1489 1485 1480 1475 1470 1465 1459 1454 1448 1443 1437 1432 1427 1422 1417 1412 1407 1403 1399 1397 1394 1393 1392 1391 1391 1392
1496 1504 1504 1496 1497 1500 1503 1498 1498 1501 1500 1500 1498 1494 1491 1493 1491 1488 1485 1480 1475 1470 1465 1459 1454 1449 1443 1437 1431 1426 1420 1415 1410 1405 1399 1395 1391 1388 1386 1384 1383 1383 1383 1383
1494 1497 1489 1492 1497 1500 1502 1500 1500 1500 1500 1499 1497 1497 1494 1491 1488 1484 1480 1476 1471 1465 1460 1455 1449 1443 1437 1432 1426 1420 1414 1408 1403 1398 1392 1388 1383 1380 1378 1376 1375 1375 1375 1375
1494 1497 1494 1493 1495 1496 1498 1499 1499 1499 1498 1497 1496 1494 1491 1488 1484 1480 1476 1471 1466 1461 1455 1450 1444 1439 1432 1426 1421 1414 1408 1402 1397 1391 1386 1382 1378 1374 1371 1370 1368 1367 1368 1368
1488 1489 1490 1492 1493 1495 1497 1497 1497 1497 1496 1495 1493 1491 1488 1485 1481 1477 1472 1467 1462 1457 1451 1445 1440 1434 1428 1421 1415 1409 1403 1397 1391 1386 1381 1376 1372 1368 1366 1364 1362 1362 1362 1362
1488 1484 1488 1491 1492 1494 1495 1495 1495 1495 1494 1493 1491 1488 1485 1481 1477 1473 1468 1464 1458 1453 1447 1441 1436 1430 1424 1417 1411 1404 1398 1391 1386 1381 1376 1371 1367 1364 1361 1359 1358 1358 1358 1358
1485 1484 1486 1488 1490 1491 1492 1492 1492 1492 1491 1490 1488 1485 1482 1478 1474 1470 1465 1460 1455 1449 1443 1437 1431 1425 1419 1413 1406 1400 1394 1388 1382 1377 1372 1368 1364 1361 1358 1356 1355 1355 1354 1355
1479 1479 1482 1484 1487 1488 1489 1489 1490 1489 1488 1487 1485 1482 1479 1475 1471 1467 1462 1456 1451 1445 1440 1433 1428 1422 1416 1409 1403 1397 1390 1384 1379 1374 1370 1366 1362 1359 1356 1354 1353 1352 1352 1353
1479 1480 1481 1483 1485 1485 1486 1487 1487 1486 1486 1484 1482 1479 1476 1472 1468 1463 1458 1453 1447 1442 1436 1430 1424 1418 1412 1406 1400 1394 1388 1382 1377 1373 1368 1364 1361 1358 1355 1353 1352 1351 1351 1351
1478 1479 1480 1481 1482 1483 1483 1484 1484 1483 1483 1481 1479 1476 1473 1469 1465 1460 1455 1450 1444 1438 1433 1427 1421 1415 1409 1403 1397 1392 1386 1381 1376 1372 1368 1364 1361 1358 1355 1353 1352 1351 1351 1351
1474 1476 1477 1478 1479 1480 1480 1481 1481 1480 1480 1478 1476 1473 1470 1466 1462 1457 1452 1447 1441 1436 1430 1425 1419 1413 1407 1401 1395 1390 1385 1380 1375 1371 1368 1364 1361 1358 1355 1353 1352 1352 1352 1352
1470 1471 1473 1474 1475 1476 1477 1478 1478 1477 1476 1475 1473 1470 1467 1463 1459 1454 1449 1444 1438 1433 1427 1422 1416 1410 1404 1399 1393 1388 1384 1379 1375 1371 1368 1364 1361 1358 1356 1354 1353 1353 1353 1353
1465 1466 1468 1470 1471 1472 1473 1474 1474 1474 1473 1472 1470 1467 1464 1460 1456 1451 1446 1441 1436 1431 1426 1420 1414 1408 1403 1397 1392 1388 1383 1379 1375 1371 1368 1365 1362 1360 1358 1356 1355 1354 1354 1354
1461 1462 1464 1465 1467 1468 1470 1471 1471 1471 1470 1469 1467 1464 1461 1457 1453 1448 1443 1438 1433 1429 1424 1418 1413 1406 1401 1396 1392 1387 1383 1380 1376 1372 1369 1366 1364 1362 1360 1358 1357 1356 1356 1356
1457 1459 1461 1462 1463 1465 1466 1467 1467 1467 1467 1465 1463 1461 1458 1455 1451 1446 1441 1436 1431 1426 1421 1416 1411 1405 1401 1396 1392 1388 1384 1380 1377 1374 1371 1368 1366 1364 1363 1361 1360 1359 1359 1358
1454 1456 1457 1459 1460 1461 1463 1463 1464 1464 1463 1462 1460 1458 1455 1452 1448 1443 1439 1435 1431 1425 1420 1415 1409 1405 1400 1396 1392 1388 1385 1382 1378 1375 1373 1370 1368 1367 1365 1364 1363 1362 1361 1360
1453 1454 1455 1456 1457 1458 1459 1460 1460 1461 1460 1459 1457 1455 1452 1449 1446 1441 1437 1433 1429 1423 1418 1413 1409 1404 1400 1396 1392 1389 1386 1383 1380 1377 1375 1373 1371 1369 1368 1367 1366 1365 1364 1363
1451 1452 1452 1453 1454 1455 1456 1456 1456 1456 1456 1455 1454 1452 1449 1446 1443 1439 1436 1432 1427 1422 1417 1413 1408 1404 1400 1397 1394 1390 1387 1385 1382 1380 1377 1375 1374 1373 1371 1370 1369 1368 1367 1366
1449 1449 1450 1449 1450 1451 1452 1452 1452 1452 1452 1451 1450 1448 1446 1443 1440 1437 1434 1430 1425 1420 1416 1412 1408 1404 1401 1398 1395 1392 1389 1387 1384 1382 1380 1379 1377 1376 1375 1374 1373 1371 1371 1370
1445 1445 1446 1446 1447 1448 1448 1448 1448 1448 1448 1447 1446 1444 1442 1440 1438 1436 1432 1427 1423 1419 1415 1412 1408 1404 1401 1398 1396 1393 1391 1388 1386 1385 1383 1382 1381 1380 1379 1377 1376 1375 1374 1373
1442 1440 1441 1441 1441 1442 1444 1444 1444 1443 1443 1443 1442 1441 1439 1437 1435 1432 1429 1425 1421 1418 1415 1411 1408 1405 1402 1399 1397 1394 1392 1390 1388 1387 1386 1385 1384 1383 1382 1381 1380 1379 1378 1377
1437 1436 1435 1435 1435 1437 1437 1438 1439 1439 1439 1439 1438 1437 1436 1434 1432 1429 1427 1424 1420 1417 1414 1411 1408 1405 1402 1400 1397 1395 1394 1392 1390 1389 1388 1387 1386 1385 1385 1384 1384 1383 1382 1382
1432 1431 1429 1428 1428 1429 1431 1431 1432 1433 1433 1434 1434 1433 1432 1431 1429 1427 1424 1422 1419 1416 1413 1410 1408 1405 1403 1400 1398 1396 1395 1393 1391 1390 1389 1389 1388 1388 1388 1387 1387 1387 1386 1386